sat.trackr.live / text

‹ back to catalog

STARLINK-4673

NORAD 53589 · 2022-104B

PAYLOAD ACTIVE UNKNOWN

§ Identity

Operator
Country
US
Launch date
2022-08-28
Launch site
AFETR
Launch vehicle
Mass (kg)
RCS (m²)

Purposes: comms

External: N2YO · Heavens-Above · Gunter

§ Orbital elements

Epoch: 2026-09-20T01:00:08.991936Z

Period
93.85 min
Inclination
53.1611°
Eccentricity
0.0001036
Mean motion
15.34390117 rev/d
Perigee alt
462.0 km
Apogee alt
463.4 km
Semi-major
6,840.9 km
B*
3.3225e-5
RAAN
75.6670°
Arg perigee
88.5999°
Mean anomaly
271.5122°
Rev number
22,550

§ Raw data

STARLINK-46731 53589U 22104B   26263.04177074  .00000746  00000+0  33225-4 0  99932 53589  53.1611  75.6670 0001036  88.5999 271.5122 15.34390117225506

JSON: /api/v1/satellites/53589 · /tle

For live sub-satellite position, see the globe view (requires WebGL).

§ Visibility from observer

Set your observer location to see the next 7 days of passes ≥ 10°. The values pass through the URL so the page stays shareable.

No JS? Fill the form by hand. The geolocation button needs JavaScript.